Powrót do katalogu

GEESAT 4-06

AktywnyŁącznośćLEO
NORAD 65124·PAYLOAD·🇨🇳 China

Wystrzelony Aug 8, 2025 z Yellow Sea Launch Area

Loading…

Następne Przeloty (najbliższe 24 godziny)

TLE

ŚwieżeSource: Space-Track

Epoka: Sep 14, 2026, 21:26 UTC

1 65124U 25170F   26257.89362884  .00001218  00000-0  17081-3 0  9995
2 65124  49.9835 117.9311 0018676  25.9088 334.2781 14.84257842 59750

Śledź GEESAT 4-06 w czasie rzeczywistym z AllMySat

Download on the App Store